Flag for Germany Weather past 2 weeks in Lehrte, Lower Saxony, Germany

Now
67 °F

Light rain. Low clouds.


Feels Like: 67 °F
Forecast: 63 / 76 °F
Wind: 1 mph from West

Location: Hannover

Current Time: Jul 29, 2014 at 11:48:16 PM

Latest Report: Jul 29, 2014 at 11:00 PM


Visibility: 5 mi

Pressure: 29.80 "Hg

Humidity: 98%

Dew point: 66 °F

Location of LehrteLocation

Historic Weather in Lehrte — Graph

°F

Lehrte temperature yesterday

Maximum temperature yesterday: 82 °F (at 6:00 PM)
Minimum temperature yesterday: 59 °F (at 6:00 AM)
Average temperature yesterday: 70 °F

Past Weeks' High & Low Weather Summary

 TemperatureHumidityPressure
High91 °F (Jul 19, 4:00 PM)100% (Jul 16, 6:00 AM)30.20 "Hg (Jul 16, 6:00 AM)
Low54 °F (Jul 17, 5:00 AM)25% (Jul 19, 4:00 PM)29.74 "Hg (Jul 29, 7:00 PM)
Average70 °F74%30.00 "Hg
* Reported Jul 14 10:00 PM — Jul 29 10:00 PM, Lehrte, Weather by CustomWeather, © 2014

Note: Actual official high and low records may vary slightly from our data, if they occured in-between our weather recording intervals... More about our weather records

Advertising

Lehrte weather history for previous 24 hours

 ConditionsComfort  
Time TempWeatherWind HumidityBarometerVisibility
10:00 PM
Jul 29
68 °FRain showers. Overcast.1 mph96%29.80 "Hg5 mi
9:00 PM69 °FThunderstorms. Overcast.3 mph91%29.77 "Hg12 mi
8:00 PM72 °FSprinkles. Overcast.8 mph78%29.75 "Hg12 mi
7:00 PM80 °FOvercast.2 mph60%29.74 "Hg16 mi
6:00 PM81 °FOvercast.3 mph58%29.76 "Hg16 mi
4:00 PM79 °FOvercast.3 mph65%29.79 "Hg12 mi
3:00 PM76 °FOvercast.2 mph72%29.81 "Hg12 mi
2:00 PM75 °FOvercast.1 mph70%29.83 "Hg11 mi
1:00 PM74 °FOvercast.1 mph70%29.84 "Hg12 mi
12:00 PM74 °FOvercast.2 mph70%29.85 "Hg16 mi
11:00 AM75 °FOvercast.5 mph65%29.85 "Hg19 mi
10:00 AM74 °FOvercast.3 mph74%29.84 "Hg16 mi
9:00 AM72 °FPartly sunny.3 mph80%29.84 "Hg16 mi
8:00 AM69 °FPartly sunny.2 mph87%29.84 "Hg9 mi
7:00 AM66 °FOvercast.1 mph93%29.84 "Hg7 mi
6:00 AM65 °FOvercast.1 mph95%29.85 "Hg7 mi
5:00 AM64 °FOvercast.1 mph97%29.85 "Hg7 mi
4:00 AM66 °FPassing clouds.2 mph93%29.85 "Hg9 mi
3:00 AM66 °FPassing clouds.2 mph91%29.85 "Hg9 mi
2:00 AM67 °FPassing clouds.2 mph90%29.86 "Hg12 mi
1:00 AM68 °FPassing clouds.2 mph87%29.86 "Hg14 mi
12:00 AM69 °FPassing clouds.2 mph86%29.86 "Hg16 mi
Weather by CustomWeather, © 2014

See weather overviewHow to use our weather pages